Time,TemperatureF,DewpointF,PressureIn,WindDirection,WindDirectionDegrees,WindSpeedMPH,WindSpeedGustMPH,Humidity,HourlyPrecipIn,Conditions,Clouds,dailyrainin,SoftwareType,DateUTC
2013-04-21 00:00:00,26.0,17.9,30.38,SSW,202,1.0,6.0,71,0.00,,,-99.99,Weather View 32 v60,2013-04-21 05:00:00,
2013-04-21 00:05:00,26.0,17.9,30.38,South,180,2.0,6.0,71,0.00,,,-99.99,Weather View 32 v60,2013-04-21 05:05:00,
2013-04-21 00:10:00,26.0,17.9,30.38,South,180,4.0,6.0,71,0.00,,,-99.99,Weather View 32 v60,2013-04-21 05:10:00,
2013-04-21 00:15:00,26.0,17.9,30.38,SSW,202,1.0,6.0,71,0.00,,,-99.99,Weather View 32 v60,2013-04-21 05:15:00,
2013-04-21 00:20:00,26.0,17.9,30.38,South,180,1.0,5.0,71,0.00,,,-99.99,Weather View 32 v60,2013-04-21 05:20:00,
2013-04-21 00:25:00,26.0,18.2,30.38,SSW,202,1.0,5.0,72,0.00,,,-99.99,Weather View 32 v60,2013-04-21 05:25:00,
2013-04-21 00:30:00,26.0,18.2,30.38,SSW,202,1.0,5.0,72,0.00,,,-99.99,Weather View 32 v60,2013-04-21 05:30:00,
2013-04-21 00:35:00,26.0,18.2,30.38,SSE,158,2.0,5.0,72,0.00,,,-99.99,Weather View 32 v60,2013-04-21 05:35:00,
2013-04-21 00:40:00,26.0,18.2,30.38,SSW,202,1.0,5.0,72,0.00,,,-99.99,Weather View 32 v60,2013-04-21 05:40:00,
2013-04-21 00:45:00,26.0,18.2,30.38,SSW,202,1.0,5.0,72,0.00,,,-99.99,Weather View 32 v60,2013-04-21 05:45:00,
2013-04-21 00:50:00,26.0,18.2,30.38,SSW,202,2.0,5.0,72,0.00,,,-99.99,Weather View 32 v60,2013-04-21 05:50:00,
2013-04-21 00:55:00,26.0,17.9,30.38,SSW,202,1.0,5.0,71,0.00,,,-99.99,Weather View 32 v60,2013-04-21 05:55:00,
2013-04-21 01:00:00,26.0,17.9,30.38,SSW,202,1.0,5.0,71,0.00,,,-99.99,Weather View 32 v60,2013-04-21 06:00:00,
2013-04-21 01:05:00,26.0,17.9,30.38,SSW,202,1.0,5.0,71,0.00,,,-99.99,Weather View 32 v60,2013-04-21 06:05:00,
2013-04-21 01:10:00,26.0,17.9,30.38,SSW,202,1.0,5.0,71,0.00,,,-99.99,Weather View 32 v60,2013-04-21 06:10:00,
2013-04-21 01:15:00,26.0,17.9,30.38,SE,135,2.0,5.0,71,0.00,,,-99.99,Weather View 32 v60,2013-04-21 06:15:00,
2013-04-21 01:20:00,26.0,18.2,30.38,SSE,158,1.0,5.0,72,0.00,,,-99.99,Weather View 32 v60,2013-04-21 06:20:00,
2013-04-21 01:25:00,26.0,18.2,30.38,SSW,202,2.0,5.0,72,0.00,,,-99.99,Weather View 32 v60,2013-04-21 06:25:00,
2013-04-21 01:30:00,26.0,18.2,30.38,SSW,202,1.0,5.0,72,0.00,,,-99.99,Weather View 32 v60,2013-04-21 06:30:00,
2013-04-21 01:35:00,26.0,18.2,30.38,SSW,202,1.0,5.0,72,0.00,,,-99.99,Weather View 32 v60,2013-04-21 06:35:00,
2013-04-21 01:40:00,26.0,18.2,30.38,SSW,202,1.0,5.0,72,0.00,,,-99.99,Weather View 32 v60,2013-04-21 06:40:00,
2013-04-21 01:45:00,26.0,18.2,30.38,South,180,1.0,5.0,72,0.00,,,-99.99,Weather View 32 v60,2013-04-21 06:45:00,
2013-04-21 01:50:00,26.0,18.5,30.37,South,180,1.0,5.0,73,0.00,,,-99.99,Weather View 32 v60,2013-04-21 06:50:00,
2013-04-21 01:55:00,26.0,18.5,30.37,South,180,1.0,5.0,73,0.00,,,-99.99,Weather View 32 v60,2013-04-21 06:55:00,
2013-04-21 02:00:00,26.0,18.5,30.37,South,180,1.0,5.0,73,0.00,,,-99.99,Weather View 32 v60,2013-04-21 07:00:00,
2013-04-21 02:05:00,26.0,18.5,30.37,SSW,202,1.0,5.0,73,0.00,,,-99.99,Weather View 32 v60,2013-04-21 07:05:00,
2013-04-21 02:10:00,26.0,18.5,30.37,SSW,202,1.0,5.0,73,0.00,,,-99.99,Weather View 32 v60,2013-04-21 07:10:00,
2013-04-21 02:15:00,26.0,18.5,30.37,SSE,158,2.0,5.0,73,0.00,,,-99.99,Weather View 32 v60,2013-04-21 07:15:00,
2013-04-21 02:20:00,26.0,18.5,30.37,SW,225,0.0,4.0,73,0.00,,,-99.99,Weather View 32 v60,2013-04-21 07:20:00,
2013-04-21 02:25:00,26.0,18.2,30.37,SSW,202,1.0,4.0,72,0.00,,,-99.99,Weather View 32 v60,2013-04-21 07:25:00,
2013-04-21 02:30:00,26.0,18.2,30.37,SSW,202,1.0,4.0,72,0.00,,,-99.99,Weather View 32 v60,2013-04-21 07:30:00,
2013-04-21 02:35:00,26.0,18.2,30.37,SSE,158,3.0,5.0,72,0.00,,,-99.99,Weather View 32 v60,2013-04-21 07:35:00,
2013-04-21 02:40:00,26.0,18.2,30.37,South,180,1.0,5.0,72,0.00,,,-99.99,Weather View 32 v60,2013-04-21 07:40:00,
2013-04-21 02:45:00,26.0,18.2,30.37,SSW,202,1.0,5.0,72,0.00,,,-99.99,Weather View 32 v60,2013-04-21 07:45:00,
2013-04-21 02:55:00,27.0,18.5,30.37,South,180,3.0,6.0,70,0.00,,,-99.99,Weather View 32 v60,2013-04-21 07:55:00,
2013-04-21 03:00:00,28.0,18.5,30.37,SSW,202,3.0,6.0,67,0.00,,,-99.99,Weather View 32 v60,2013-04-21 08:00:00,
2013-04-21 03:05:00,29.0,17.6,30.37,SSW,202,2.0,6.0,62,0.00,,,-99.99,Weather View 32 v60,2013-04-21 08:05:00,
2013-04-21 03:15:00,30.0,17.0,30.37,SSW,202,1.0,7.0,58,0.00,,,-99.99,Weather View 32 v60,2013-04-21 08:15:00,
2013-04-21 03:20:00,30.0,17.4,30.37,SSW,202,1.0,7.0,59,0.00,,,-99.99,Weather View 32 v60,2013-04-21 08:20:00,
2013-04-21 03:25:00,30.0,17.4,30.37,SSW,202,3.0,7.0,59,0.00,,,-99.99,Weather View 32 v60,2013-04-21 08:25:00,
2013-04-21 03:30:00,30.0,17.0,30.37,SSW,202,1.0,7.0,58,0.00,,,-99.99,Weather View 32 v60,2013-04-21 08:30:00,
2013-04-21 03:35:00,30.0,17.4,30.37,WNW,292,2.0,7.0,59,0.00,,,-99.99,Weather View 32 v60,2013-04-21 08:35:00,
2013-04-21 03:40:00,30.0,17.4,30.37,SW,225,0.0,7.0,59,0.00,,,-99.99,Weather View 32 v60,2013-04-21 08:40:00,
2013-04-21 03:45:00,30.0,17.8,30.37,SW,225,1.0,7.0,60,0.00,,,-99.99,Weather View 32 v60,2013-04-21 08:45:00,
2013-04-21 03:55:00,30.0,17.0,30.37,SW,225,4.0,7.0,58,0.00,,,-99.99,Weather View 32 v60,2013-04-21 08:55:00,
2013-04-21 04:00:00,30.0,17.0,30.37,SSW,202,3.0,7.0,58,0.00,,,-99.99,Weather View 32 v60,2013-04-21 09:00:00,
2013-04-21 04:05:00,30.0,17.0,30.36,South,180,4.0,7.0,58,0.00,,,-99.99,Weather View 32 v60,2013-04-21 09:05:00,
2013-04-21 04:10:00,31.0,17.5,30.36,SSW,202,3.0,7.0,57,0.00,,,-99.99,Weather View 32 v60,2013-04-21 09:10:00,
2013-04-21 04:15:00,31.0,17.5,30.36,South,180,3.0,6.0,57,0.00,,,-99.99,Weather View 32 v60,2013-04-21 09:15:00,
2013-04-21 04:20:00,31.0,17.5,30.36,SSW,202,3.0,7.0,57,0.00,,,-99.99,Weather View 32 v60,2013-04-21 09:20:00,
2013-04-21 04:25:00,31.0,17.1,30.36,SSW,202,3.0,7.0,56,0.00,,,-99.99,Weather View 32 v60,2013-04-21 09:25:00,
2013-04-21 04:30:00,31.0,17.1,30.36,SSW,202,3.0,7.0,56,0.00,,,-99.99,Weather View 32 v60,2013-04-21 09:30:00,
2013-04-21 04:35:00,31.0,17.1,30.36,SSW,202,7.0,7.0,56,0.00,,,-99.99,Weather View 32 v60,2013-04-21 09:35:00,
2013-04-21 04:40:00,31.0,17.1,30.36,SSW,202,2.0,7.0,56,0.00,,,-99.99,Weather View 32 v60,2013-04-21 09:40:00,
2013-04-21 04:45:00,31.0,17.1,30.36,WSW,248,3.0,7.0,56,0.00,,,-99.99,Weather View 32 v60,2013-04-21 09:45:00,
2013-04-21 04:55:00,31.0,17.5,30.36,SW,225,3.0,8.0,57,0.00,,,-99.99,Weather View 32 v60,2013-04-21 09:55:00,
2013-04-21 05:00:00,31.0,17.9,30.36,South,180,5.0,10.0,58,0.00,,,-99.99,Weather View 32 v60,2013-04-21 10:00:00,
2013-04-21 05:05:00,31.0,18.3,30.36,SSE,158,5.0,14.0,59,0.00,,,-99.99,Weather View 32 v60,2013-04-21 10:05:00,
2013-04-21 05:10:00,32.0,20.1,30.36,SSW,202,4.0,14.0,61,0.00,,,-99.99,Weather View 32 v60,2013-04-21 10:10:00,
2013-04-21 05:20:00,31.0,21.0,30.36,SW,225,6.0,14.0,66,0.00,,,-99.99,Weather View 32 v60,2013-04-21 10:20:00,
2013-04-21 05:25:00,31.0,21.3,30.35,WSW,248,4.0,14.0,67,0.00,,,-99.99,Weather View 32 v60,2013-04-21 10:25:00,
2013-04-21 05:35:00,31.0,22.7,30.36,South,180,5.0,14.0,71,0.00,,,-99.99,Weather View 32 v60,2013-04-21 10:35:00,
2013-04-21 05:40:00,31.0,22.7,30.35,SSW,202,3.0,14.0,71,0.00,,,-99.99,Weather View 32 v60,2013-04-21 10:40:00,
2013-04-21 05:45:00,31.0,23.4,30.35,SSW,202,4.0,14.0,73,0.00,,,-99.99,Weather View 32 v60,2013-04-21 10:45:00,
2013-04-21 05:50:00,31.0,23.7,30.35,SSE,158,5.0,14.0,74,0.00,,,-99.99,Weather View 32 v60,2013-04-21 10:50:00,
2013-04-21 05:55:00,31.0,24.0,30.35,SSW,202,5.0,14.0,75,0.00,,,-99.99,Weather View 32 v60,2013-04-21 10:55:00,
2013-04-21 06:00:00,31.0,24.3,30.35,SSW,202,3.0,14.0,76,0.00,,,-99.99,Weather View 32 v60,2013-04-21 11:00:00,
2013-04-21 06:10:00,31.0,24.6,30.35,SSW,202,6.0,10.0,77,0.00,,,-99.99,Weather View 32 v60,2013-04-21 11:10:00,
2013-04-21 06:15:00,31.0,24.9,30.35,South,180,4.0,10.0,78,0.00,,,-99.99,Weather View 32 v60,2013-04-21 11:15:00,
2013-04-21 06:20:00,31.0,24.9,30.35,SW,225,2.0,10.0,78,0.00,,,-99.99,Weather View 32 v60,2013-04-21 11:20:00,
2013-04-21 06:25:00,30.0,24.3,30.35,SSW,202,3.0,10.0,79,0.00,,,-99.99,Weather View 32 v60,2013-04-21 11:25:00,
2013-04-21 06:30:00,30.0,24.6,30.35,SSW,202,3.0,10.0,80,0.00,,,-99.99,Weather View 32 v60,2013-04-21 11:30:00,
2013-04-21 06:35:00,30.0,24.6,30.35,SSW,202,1.0,10.0,80,0.00,,,-99.99,Weather View 32 v60,2013-04-21 11:35:00,
2013-04-21 06:40:00,30.0,24.6,30.35,SW,225,4.0,10.0,80,0.00,,,-99.99,Weather View 32 v60,2013-04-21 11:40:00,
2013-04-21 06:47:00,30.0,24.9,30.35,SSE,158,4.0,10.0,81,0.00,,,-99.99,Weather View 32 v60,2013-04-21 11:47:00,
2013-04-21 06:55:00,30.0,25.2,30.34,South,180,3.0,13.0,82,0.00,,,-99.99,Weather View 32 v60,2013-04-21 11:55:00,
2013-04-21 07:00:00,31.0,26.1,30.35,South,180,3.0,13.0,82,0.00,,,-99.99,Weather View 32 v60,2013-04-21 12:00:00,
2013-04-21 07:05:00,31.0,26.1,30.34,SSE,158,3.0,13.0,82,0.00,,,-99.99,Weather View 32 v60,2013-04-21 12:05:00,
2013-04-21 07:10:00,31.0,26.1,30.34,SSW,202,4.0,13.0,82,0.00,,,-99.99,Weather View 32 v60,2013-04-21 12:10:00,
2013-04-21 07:20:00,31.0,26.1,30.34,South,180,5.0,13.0,82,0.00,,,-99.99,Weather View 32 v60,2013-04-21 12:20:00,
2013-04-21 07:25:00,32.0,27.1,30.34,South,180,4.0,13.0,82,0.00,,,-99.99,Weather View 32 v60,2013-04-21 12:25:00,
2013-04-21 07:30:00,32.0,27.1,30.34,SSW,202,2.0,13.0,82,0.00,,,-99.99,Weather View 32 v60,2013-04-21 12:30:00,
2013-04-21 07:35:00,32.0,27.1,30.34,SSE,158,3.0,13.0,82,0.00,,,-99.99,Weather View 32 v60,2013-04-21 12:35:00,
2013-04-21 07:40:00,32.0,27.1,30.34,SSE,158,2.0,13.0,82,0.00,,,-99.99,Weather View 32 v60,2013-04-21 12:40:00,
2013-04-21 07:47:00,32.0,27.1,30.34,SE,135,3.0,13.0,82,0.00,,,-99.99,Weather View 32 v60,2013-04-21 12:47:00,
2013-04-21 07:55:00,33.0,28.1,30.33,SSW,202,5.0,11.0,82,0.00,,,-99.99,Weather View 32 v60,2013-04-21 12:55:00,
2013-04-21 08:00:00,33.0,27.8,30.34,SSW,202,8.0,11.0,81,0.00,,,-99.99,Weather View 32 v60,2013-04-21 13:00:00,
2013-04-21 08:10:00,34.0,28.5,30.33,SSW,202,8.0,11.0,80,0.00,,,-99.99,Weather View 32 v60,2013-04-21 13:10:00,
2013-04-21 08:15:00,34.0,28.5,30.33,SW,225,3.0,13.0,80,0.00,,,-99.99,Weather View 32 v60,2013-04-21 13:15:00,
2013-04-21 08:20:00,34.0,28.5,30.33,SSE,158,4.0,13.0,80,0.00,,,-99.99,Weather View 32 v60,2013-04-21 13:20:00,
2013-04-21 08:30:00,34.0,28.2,30.33,South,180,5.0,19.0,79,0.00,,,-99.99,Weather View 32 v60,2013-04-21 13:30:00,
2013-04-21 08:35:00,34.0,28.2,30.32,SW,225,8.0,19.0,79,0.00,,,-99.99,Weather View 32 v60,2013-04-21 13:35:00,
2013-04-21 08:40:00,34.0,28.2,30.32,SSW,202,13.0,19.0,79,0.00,,,-99.99,Weather View 32 v60,2013-04-21 13:40:00,
2013-04-21 08:45:00,34.0,28.5,30.32,SSW,202,13.0,19.0,80,0.00,,,-99.99,Weather View 32 v60,2013-04-21 13:45:00,
2013-04-21 08:50:00,34.0,28.5,30.32,SW,225,8.0,19.0,80,0.00,,,-99.99,Weather View 32 v60,2013-04-21 13:50:00,
2013-04-21 08:55:00,34.0,28.5,30.32,SSW,202,15.0,19.0,80,0.00,,,-99.99,Weather View 32 v60,2013-04-21 13:55:00,
2013-04-21 09:05:00,34.0,28.8,30.31,SE,135,5.0,19.0,81,0.00,,,-99.99,Weather View 32 v60,2013-04-21 14:05:00,
2013-04-21 09:10:00,34.0,28.8,30.31,SSW,202,6.0,19.0,81,0.00,,,-99.99,Weather View 32 v60,2013-04-21 14:10:00,
2013-04-21 09:15:00,35.0,29.8,30.31,SSW,202,8.0,19.0,81,0.00,,,-99.99,Weather View 32 v60,2013-04-21 14:15:00,
2013-04-21 09:20:00,35.0,29.5,30.31,SSW,202,4.0,19.0,80,0.00,,,-99.99,Weather View 32 v60,2013-04-21 14:20:00,
2013-04-21 09:25:00,35.0,29.5,30.30,SSW,202,7.0,18.0,80,0.00,,,-99.99,Weather View 32 v60,2013-04-21 14:25:00,
2013-04-21 09:30:00,35.0,29.1,30.30,SW,225,11.0,18.0,79,0.01,,,-99.99,Weather View 32 v60,2013-04-21 14:30:00,
2013-04-21 09:35:00,35.0,29.1,30.30,South,180,8.0,18.0,79,0.01,,,-99.99,Weather View 32 v60,2013-04-21 14:35:00,
2013-04-21 09:40:00,35.0,29.1,30.30,SSW,202,4.0,18.0,79,0.01,,,-99.99,Weather View 32 v60,2013-04-21 14:40:00,
2013-04-21 09:45:00,35.0,28.8,30.30,SSE,158,10.0,18.0,78,0.01,,,-99.99,Weather View 32 v60,2013-04-21 14:45:00,
2013-04-21 09:50:00,35.0,28.8,30.30,SW,225,4.0,20.0,78,0.01,,,-99.99,Weather View 32 v60,2013-04-21 14:50:00,
2013-04-21 09:55:00,35.0,28.8,30.30,SSW,202,8.0,20.0,78,0.01,,,-99.99,Weather View 32 v60,2013-04-21 14:55:00,
2013-04-21 10:00:00,35.0,29.1,30.30,SSW,202,6.0,20.0,79,0.02,,,-99.99,Weather View 32 v60,2013-04-21 15:00:00,
2013-04-21 10:05:00,35.0,29.1,30.30,SSW,202,11.0,20.0,79,0.02,,,-99.99,Weather View 32 v60,2013-04-21 15:05:00,
2013-04-21 10:10:00,35.0,29.1,30.29,SSE,158,8.0,20.0,79,0.02,,,-99.99,Weather View 32 v60,2013-04-21 15:10:00,
2013-04-21 10:15:00,35.0,29.1,30.29,South,180,6.0,20.0,79,0.03,,,-99.99,Weather View 32 v60,2013-04-21 15:15:00,
2013-04-21 10:20:00,35.0,29.1,30.29,South,180,8.0,20.0,79,0.03,,,-99.99,Weather View 32 v60,2013-04-21 15:20:00,
2013-04-21 10:25:00,35.0,29.1,30.29,SSW,202,5.0,20.0,79,0.03,,,-99.99,Weather View 32 v60,2013-04-21 15:25:00,
2013-04-21 10:30:00,35.0,29.5,30.29,WSW,248,5.0,20.0,80,0.02,,,-99.99,Weather View 32 v60,2013-04-21 15:30:00,
2013-04-21 10:35:00,35.0,29.5,30.28,SSW,202,14.0,20.0,80,0.03,,,-99.99,Weather View 32 v60,2013-04-21 15:35:00,
2013-04-21 10:40:00,35.0,29.8,30.28,South,180,6.0,20.0,81,0.03,,,-99.99,Weather View 32 v60,2013-04-21 15:40:00,
2013-04-21 10:49:00,35.0,29.8,30.28,SSW,202,7.0,20.0,81,0.03,,,-99.99,Weather View 32 v60,2013-04-21 15:49:00,
2013-04-21 10:55:00,34.0,29.1,30.28,SSW,202,4.0,16.0,82,0.04,,,-99.99,Weather View 32 v60,2013-04-21 15:55:00,
2013-04-21 11:00:00,34.0,29.4,30.28,SSW,202,8.0,16.0,83,0.03,,,-99.99,Weather View 32 v60,2013-04-21 16:00:00,
2013-04-21 11:05:00,35.0,30.4,30.28,South,180,10.0,16.0,83,0.03,,,-99.99,Weather View 32 v60,2013-04-21 16:05:00,
2013-04-21 11:10:00,35.0,30.4,30.27,SSW,202,15.0,18.0,83,0.03,,,-99.99,Weather View 32 v60,2013-04-21 16:10:00,
2013-04-21 11:15:00,35.0,30.1,30.27,SSW,202,6.0,18.0,82,0.03,,,-99.99,Weather View 32 v60,2013-04-21 16:15:00,
2013-04-21 11:20:00,35.0,30.1,30.27,SSW,202,3.0,18.0,82,0.03,,,-99.99,Weather View 32 v60,2013-04-21 16:20:00,
2013-04-21 11:30:00,36.0,30.7,30.27,SSE,158,10.0,19.0,81,0.04,,,-99.99,Weather View 32 v60,2013-04-21 16:30:00,
2013-04-21 11:35:00,36.0,30.4,30.26,SSE,158,5.0,19.0,80,0.03,,,-99.99,Weather View 32 v60,2013-04-21 16:35:00,
2013-04-21 11:40:00,36.0,30.4,30.25,SSW,202,9.0,19.0,80,0.03,,,-99.99,Weather View 32 v60,2013-04-21 16:40:00,
2013-04-21 11:45:00,36.0,30.1,30.25,SSW,202,11.0,20.0,79,0.03,,,-99.99,Weather View 32 v60,2013-04-21 16:45:00,
2013-04-21 11:50:00,37.0,31.1,30.24,SSW,202,9.0,20.0,79,0.03,,,-99.99,Weather View 32 v60,2013-04-21 16:50:00,
2013-04-21 11:55:00,37.0,30.8,30.24,SSW,202,6.0,20.0,78,0.03,,,-99.99,Weather View 32 v60,2013-04-21 16:55:00,
2013-04-21 12:00:00,38.0,31.4,30.24,South,180,6.0,20.0,77,0.03,,,-99.99,Weather View 32 v60,2013-04-21 17:00:00,
2013-04-21 12:10:00,38.0,30.8,30.23,SSW,202,7.0,21.0,75,0.04,,,-99.99,Weather View 32 v60,2013-04-21 17:10:00,
2013-04-21 12:15:00,38.0,30.8,30.23,SW,225,8.0,21.0,75,0.03,,,-99.99,Weather View 32 v60,2013-04-21 17:15:00,
2013-04-21 12:20:00,38.0,30.4,30.23,SSE,158,9.0,21.0,74,0.03,,,-99.99,Weather View 32 v60,2013-04-21 17:20:00,
2013-04-21 12:25:00,38.0,30.4,30.22,South,180,10.0,21.0,74,0.03,,,-99.99,Weather View 32 v60,2013-04-21 17:25:00,
2013-04-21 12:30:00,38.0,30.8,30.22,WSW,248,5.0,21.0,75,0.03,,,-99.99,Weather View 32 v60,2013-04-21 17:30:00,
2013-04-21 12:35:00,38.0,30.8,30.22,SW,225,10.0,21.0,75,0.03,,,-99.99,Weather View 32 v60,2013-04-21 17:35:00,
2013-04-21 12:40:00,38.0,30.8,30.22,SSW,202,8.0,21.0,75,0.03,,,-99.99,Weather View 32 v60,2013-04-21 17:40:00,
2013-04-21 12:45:00,38.0,30.8,30.21,WSW,248,5.0,21.0,75,0.03,,,-99.99,Weather View 32 v60,2013-04-21 17:45:00,
2013-04-21 12:50:00,38.0,30.8,30.21,South,180,12.0,21.0,75,0.02,,,-99.99,Weather View 32 v60,2013-04-21 17:50:00,
2013-04-21 13:00:00,38.0,30.4,30.20,SSW,202,6.0,21.0,74,0.02,,,-99.99,Weather View 32 v60,2013-04-21 18:00:00,
2013-04-21 13:05:00,38.0,30.4,30.20,SW,225,8.0,21.0,74,0.01,,,-99.99,Weather View 32 v60,2013-04-21 18:05:00,
2013-04-21 13:10:00,39.0,31.4,30.19,SSE,158,6.0,21.0,74,0.01,,,-99.99,Weather View 32 v60,2013-04-21 18:10:00,
2013-04-21 13:15:00,39.0,31.1,30.19,SSW,202,8.0,21.0,73,0.01,,,-99.99,Weather View 32 v60,2013-04-21 18:15:00,
2013-04-21 13:20:00,39.0,31.1,30.19,SSW,202,11.0,21.0,73,0.01,,,-99.99,Weather View 32 v60,2013-04-21 18:20:00,
2013-04-21 13:30:00,39.0,31.1,30.19,South,180,7.0,20.0,73,0.00,,,-99.99,Weather View 32 v60,2013-04-21 18:30:00,
2013-04-21 13:35:00,39.0,31.1,30.18,SSW,202,14.0,20.0,73,0.00,,,-99.99,Weather View 32 v60,2013-04-21 18:35:00,
2013-04-21 13:40:00,39.0,31.1,30.18,South,180,9.0,20.0,73,0.00,,,-99.99,Weather View 32 v60,2013-04-21 18:40:00,
2013-04-21 13:45:00,39.0,31.1,30.18,SSW,202,14.0,20.0,73,0.00,,,-99.99,Weather View 32 v60,2013-04-21 18:45:00,
2013-04-21 13:50:00,39.0,31.1,30.18,SW,225,7.0,20.0,73,0.00,,,-99.99,Weather View 32 v60,2013-04-21 18:50:00,
2013-04-21 13:55:00,39.0,31.1,30.18,South,180,6.0,20.0,73,0.00,,,-99.99,Weather View 32 v60,2013-04-21 18:55:00,
2013-04-21 14:00:00,39.0,31.1,30.18,SSW,202,14.0,20.0,73,0.00,,,-99.99,Weather View 32 v60,2013-04-21 19:00:00,
2013-04-21 14:05:00,39.0,30.7,30.17,SSW,202,6.0,22.0,72,0.00,,,-99.99,Weather View 32 v60,2013-04-21 19:05:00,
2013-04-21 14:10:00,39.0,30.7,30.17,West,270,5.0,22.0,72,0.00,,,-99.99,Weather View 32 v60,2013-04-21 19:10:00,
2013-04-21 14:15:00,39.0,30.7,30.17,SSW,202,8.0,22.0,72,0.00,,,-99.99,Weather View 32 v60,2013-04-21 19:15:00,
2013-04-21 14:25:00,39.0,30.7,30.16,SW,225,8.0,22.0,72,0.00,,,-99.99,Weather View 32 v60,2013-04-21 19:25:00,
2013-04-21 14:30:00,39.0,30.7,30.16,SSW,202,7.0,22.0,72,0.00,,,-99.99,Weather View 32 v60,2013-04-21 19:30:00,
2013-04-21 14:35:00,39.0,30.4,30.16,SSW,202,10.0,22.0,71,0.00,,,-99.99,Weather View 32 v60,2013-04-21 19:35:00,
2013-04-21 14:40:00,39.0,30.4,30.16,South,180,7.0,22.0,71,0.00,,,-99.99,Weather View 32 v60,2013-04-21 19:40:00,
2013-04-21 14:45:00,39.0,30.4,30.16,SSW,202,8.0,22.0,71,0.00,,,-99.99,Weather View 32 v60,2013-04-21 19:45:00,
2013-04-21 14:50:00,39.0,30.4,30.15,SSW,202,8.0,22.0,71,0.00,,,-99.99,Weather View 32 v60,2013-04-21 19:50:00,
2013-04-21 14:55:00,39.0,30.4,30.15,SSW,202,10.0,22.0,71,0.00,,,-99.99,Weather View 32 v60,2013-04-21 19:55:00,
2013-04-21 15:00:00,39.0,30.4,30.15,WSW,248,5.0,22.0,71,0.00,,,-99.99,Weather View 32 v60,2013-04-21 20:00:00,
2013-04-21 15:05:00,40.0,31.3,30.15,SSW,202,3.0,22.0,71,0.00,,,-99.99,Weather View 32 v60,2013-04-21 20:05:00,
2013-04-21 15:15:00,40.0,31.0,30.14,SSW,202,10.0,20.0,70,0.00,,,-99.99,Weather View 32 v60,2013-04-21 20:15:00,
2013-04-21 15:20:00,40.0,31.3,30.14,South,180,6.0,20.0,71,0.00,,,-99.99,Weather View 32 v60,2013-04-21 20:20:00,
2013-04-21 15:25:00,40.0,31.3,30.14,South,180,6.0,20.0,71,0.00,,,-99.99,Weather View 32 v60,2013-04-21 20:25:00,
2013-04-21 15:30:00,40.0,31.3,30.14,SSW,202,6.0,20.0,71,0.00,,,-99.99,Weather View 32 v60,2013-04-21 20:30:00,
2013-04-21 15:35:00,40.0,31.3,30.14,SSW,202,13.0,20.0,71,0.00,,,-99.99,Weather View 32 v60,2013-04-21 20:35:00,
2013-04-21 15:40:00,39.0,30.4,30.14,SW,225,6.0,20.0,71,0.00,,,-99.99,Weather View 32 v60,2013-04-21 20:40:00,
2013-04-21 15:45:00,40.0,31.3,30.14,SE,135,5.0,20.0,71,0.00,,,-99.99,Weather View 32 v60,2013-04-21 20:45:00,
2013-04-21 15:50:00,40.0,31.3,30.14,SW,225,7.0,20.0,71,0.00,,,-99.99,Weather View 32 v60,2013-04-21 20:50:00,
2013-04-21 15:55:00,40.0,31.3,30.13,SSW,202,8.0,20.0,71,0.00,,,-99.99,Weather View 32 v60,2013-04-21 20:55:00,
2013-04-21 16:00:00,40.0,31.3,30.13,SSW,202,5.0,17.0,71,0.00,,,-99.99,Weather View 32 v60,2013-04-21 21:00:00,
2013-04-21 16:05:00,40.0,31.3,30.13,South,180,14.0,18.0,71,0.00,,,-99.99,Weather View 32 v60,2013-04-21 21:05:00,
2013-04-21 16:10:00,40.0,31.3,30.13,SW,225,12.0,18.0,71,0.00,,,-99.99,Weather View 32 v60,2013-04-21 21:10:00,
2013-04-21 16:20:00,40.0,31.7,30.13,SE,135,10.0,18.0,72,0.00,,,-99.99,Weather View 32 v60,2013-04-21 21:20:00,
2013-04-21 16:25:00,40.0,31.7,30.13,SSW,202,6.0,18.0,72,0.00,,,-99.99,Weather View 32 v60,2013-04-21 21:25:00,
2013-04-21 16:30:00,40.0,31.7,30.13,South,180,6.0,18.0,72,0.00,,,-99.99,Weather View 32 v60,2013-04-21 21:30:00,
2013-04-21 16:35:00,40.0,31.7,30.13,SSW,202,6.0,18.0,72,0.00,,,-99.99,Weather View 32 v60,2013-04-21 21:35:00,
2013-04-21 16:40:00,40.0,31.7,30.13,South,180,5.0,18.0,72,0.00,,,-99.99,Weather View 32 v60,2013-04-21 21:40:00,
2013-04-21 16:45:00,40.0,32.0,30.13,SSW,202,6.0,18.0,73,0.00,,,-99.99,Weather View 32 v60,2013-04-21 21:45:00,
2013-04-21 16:50:00,39.0,31.1,30.12,SSE,158,4.0,18.0,73,0.00,,,-99.99,Weather View 32 v60,2013-04-21 21:50:00,
2013-04-21 16:55:00,39.0,31.4,30.12,SSW,202,6.0,18.0,74,0.00,,,-99.99,Weather View 32 v60,2013-04-21 21:55:00,
2013-04-21 17:00:00,39.0,31.7,30.11,SSW,202,6.0,18.0,75,0.00,,,-99.99,Weather View 32 v60,2013-04-21 22:00:00,
2013-04-21 17:10:00,40.0,32.7,30.11,South,180,5.0,16.0,75,0.00,,,-99.99,Weather View 32 v60,2013-04-21 22:10:00,
2013-04-21 17:15:00,40.0,32.7,30.11,SSW,202,8.0,15.0,75,0.00,,,-99.99,Weather View 32 v60,2013-04-21 22:15:00,
2013-04-21 17:20:00,40.0,32.7,30.11,SSE,158,4.0,15.0,75,0.00,,,-99.99,Weather View 32 v60,2013-04-21 22:20:00,
2013-04-21 17:25:00,40.0,32.7,30.10,South,180,8.0,15.0,75,0.00,,,-99.99,Weather View 32 v60,2013-04-21 22:25:00,
2013-04-21 17:30:00,40.0,32.7,30.10,SSW,202,6.0,15.0,75,0.00,,,-99.99,Weather View 32 v60,2013-04-21 22:30:00,
2013-04-21 17:35:00,40.0,33.0,30.10,South,180,4.0,14.0,76,0.00,,,-99.99,Weather View 32 v60,2013-04-21 22:35:00,
2013-04-21 17:40:00,40.0,33.0,30.10,SE,135,5.0,14.0,76,0.00,,,-99.99,Weather View 32 v60,2013-04-21 22:40:00,
2013-04-21 17:45:00,40.0,33.0,30.09,SSW,202,6.0,14.0,76,0.00,,,-99.99,Weather View 32 v60,2013-04-21 22:45:00,
2013-04-21 17:53:00,40.0,33.0,30.09,SSW,202,4.0,14.0,76,0.00,,,-99.99,Weather View 32 v60,2013-04-21 22:53:00,
2013-04-21 18:00:00,40.0,33.4,30.09,SSW,202,5.0,14.0,77,0.00,,,-99.99,Weather View 32 v60,2013-04-21 23:00:00,
2013-04-21 18:05:00,40.0,33.4,30.09,SSW,202,6.0,14.0,77,0.00,,,-99.99,Weather View 32 v60,2013-04-21 23:05:00,
2013-04-21 18:15:00,39.0,33.0,30.08,South,180,8.0,14.0,79,0.01,,,-99.99,Weather View 32 v60,2013-04-21 23:15:00,
2013-04-21 18:20:00,39.0,33.3,30.08,South,180,3.0,12.0,80,0.01,,,-99.99,Weather View 32 v60,2013-04-21 23:20:00,
2013-04-21 18:25:00,39.0,33.3,30.08,South,180,5.0,13.0,80,0.01,,,-99.99,Weather View 32 v60,2013-04-21 23:25:00,
2013-04-21 18:30:00,39.0,33.7,30.08,SSW,202,6.0,13.0,81,0.01,,,-99.99,Weather View 32 v60,2013-04-21 23:30:00,
2013-04-21 18:35:00,39.0,33.7,30.08,SW,225,3.0,13.0,81,0.01,,,-99.99,Weather View 32 v60,2013-04-21 23:35:00,
2013-04-21 18:40:00,39.0,34.0,30.08,South,180,7.0,13.0,82,0.01,,,-99.99,Weather View 32 v60,2013-04-21 23:40:00,
2013-04-21 18:50:00,39.0,34.0,30.08,SE,135,4.0,13.0,82,0.01,,,-99.99,Weather View 32 v60,2013-04-21 23:50:00,
2013-04-21 18:55:00,39.0,34.0,30.08,SW,225,4.0,13.0,82,0.01,,,-99.99,Weather View 32 v60,2013-04-21 23:55:00,
2013-04-21 19:00:00,39.0,34.0,30.08,WNW,292,3.0,13.0,82,0.02,,,-99.99,Weather View 32 v60,2013-04-22 00:00:00,
2013-04-21 19:05:00,39.0,34.3,30.08,NW,315,3.0,13.0,83,0.02,,,-99.99,Weather View 32 v60,2013-04-22 00:05:00,
2013-04-21 19:10:00,38.0,33.6,30.09,West,270,1.0,13.0,84,0.01,,,-99.99,Weather View 32 v60,2013-04-22 00:10:00,
2013-04-21 19:15:00,38.0,33.6,30.09,SW,225,1.0,13.0,84,0.01,,,-99.99,Weather View 32 v60,2013-04-22 00:15:00,
2013-04-21 19:20:00,38.0,33.3,30.09,West,270,1.0,13.0,83,0.01,,,-99.99,Weather View 32 v60,2013-04-22 00:20:00,
2013-04-21 19:25:00,38.0,33.6,30.09,SW,225,3.0,11.0,84,0.02,,,-99.99,Weather View 32 v60,2013-04-22 00:25:00,
2013-04-21 19:30:00,38.0,33.6,30.09,West,270,1.0,11.0,84,0.02,,,-99.99,Weather View 32 v60,2013-04-22 00:30:00,
2013-04-21 19:35:00,38.0,33.9,30.09,SW,225,2.0,11.0,85,0.02,,,-99.99,Weather View 32 v60,2013-04-22 00:35:00,
2013-04-21 19:40:00,38.0,33.9,30.09,SSW,202,1.0,11.0,85,0.02,,,-99.99,Weather View 32 v60,2013-04-22 00:40:00,
2013-04-21 19:45:00,38.0,33.9,30.09,East,90,2.0,11.0,85,0.02,,,-99.99,Weather View 32 v60,2013-04-22 00:45:00,
2013-04-21 19:54:00,38.0,34.2,30.09,SW,225,2.0,10.0,86,0.02,,,-99.99,Weather View 32 v60,2013-04-22 00:54:00,
2013-04-21 20:00:00,39.0,35.5,30.10,WSW,248,6.0,11.0,87,0.01,,,-99.99,Weather View 32 v60,2013-04-22 01:00:00,
2013-04-21 20:05:00,39.0,35.5,30.09,WNW,292,4.0,12.0,87,0.01,,,-99.99,Weather View 32 v60,2013-04-22 01:05:00,
2013-04-21 20:10:00,40.0,36.4,30.10,SW,225,6.0,12.0,87,0.02,,,-99.99,Weather View 32 v60,2013-04-22 01:10:00,
2013-04-21 20:20:00,40.0,36.7,30.10,SW,225,5.0,13.0,88,0.02,,,-99.99,Weather View 32 v60,2013-04-22 01:20:00,
2013-04-21 20:25:00,40.0,36.7,30.10,SSW,202,3.0,13.0,88,0.01,,,-99.99,Weather View 32 v60,2013-04-22 01:25:00,
2013-04-21 20:30:00,39.0,35.7,30.10,SW,225,4.0,13.0,88,0.01,,,-99.99,Weather View 32 v60,2013-04-22 01:30:00,
2013-04-21 20:35:00,39.0,35.7,30.10,SSW,202,3.0,13.0,88,0.01,,,-99.99,Weather View 32 v60,2013-04-22 01:35:00,
2013-04-21 20:40:00,39.0,35.7,30.10,SW,225,5.0,13.0,88,0.02,,,-99.99,Weather View 32 v60,2013-04-22 01:40:00,
2013-04-21 20:45:00,39.0,35.7,30.11,SW,225,5.0,13.0,88,0.02,,,-99.99,Weather View 32 v60,2013-04-22 01:45:00,
2013-04-21 20:55:00,39.0,36.0,30.11,SW,225,3.0,13.0,89,0.02,,,-99.99,Weather View 32 v60,2013-04-22 01:55:00,
2013-04-21 21:00:00,39.0,36.0,30.11,WSW,248,3.0,13.0,89,0.02,,,-99.99,Weather View 32 v60,2013-04-22 02:00:00,
2013-04-21 21:10:00,39.0,36.0,30.12,SW,225,4.0,13.0,89,0.01,,,-99.99,Weather View 32 v60,2013-04-22 02:10:00,
2013-04-21 21:15:00,39.0,36.0,30.12,SW,225,2.0,11.0,89,0.01,,,-99.99,Weather View 32 v60,2013-04-22 02:15:00,
2013-04-21 21:20:00,39.0,36.0,30.12,West,270,3.0,11.0,89,0.01,,,-99.99,Weather View 32 v60,2013-04-22 02:20:00,
2013-04-21 21:25:00,39.0,36.0,30.12,SW,225,3.0,11.0,89,0.02,,,-99.99,Weather View 32 v60,2013-04-22 02:25:00,
2013-04-21 21:30:00,39.0,36.0,30.12,South,180,3.0,11.0,89,0.02,,,-99.99,Weather View 32 v60,2013-04-22 02:30:00,
2013-04-21 21:35:00,39.0,36.0,30.12,SW,225,1.0,11.0,89,0.02,,,-99.99,Weather View 32 v60,2013-04-22 02:35:00,
2013-04-21 21:40:00,39.0,36.0,30.12,SW,225,2.0,11.0,89,0.01,,,-99.99,Weather View 32 v60,2013-04-22 02:40:00,
2013-04-21 21:50:00,39.0,36.3,30.12,WSW,248,3.0,8.0,90,0.01,,,-99.99,Weather View 32 v60,2013-04-22 02:50:00,
2013-04-21 21:55:00,39.0,36.3,30.12,SW,225,4.0,7.0,90,0.02,,,-99.99,Weather View 32 v60,2013-04-22 02:55:00,
2013-04-21 22:05:00,39.0,36.3,30.13,West,270,2.0,7.0,90,0.02,,,-99.99,Weather View 32 v60,2013-04-22 03:05:00,
2013-04-21 22:10:00,39.0,36.3,30.13,West,270,1.0,7.0,90,0.02,,,-99.99,Weather View 32 v60,2013-04-22 03:10:00,
2013-04-21 22:15:00,39.0,36.3,30.13,West,270,1.0,7.0,90,0.02,,,-99.99,Weather View 32 v60,2013-04-22 03:15:00,
2013-04-21 22:20:00,39.0,36.3,30.13,West,270,3.0,7.0,90,0.02,,,-99.99,Weather View 32 v60,2013-04-22 03:20:00,
2013-04-21 22:25:00,39.0,36.3,30.13,NNW,338,2.0,7.0,90,0.01,,,-99.99,Weather View 32 v60,2013-04-22 03:25:00,
2013-04-21 22:30:00,39.0,36.3,30.13,WNW,292,3.0,6.0,90,0.01,,,-99.99,Weather View 32 v60,2013-04-22 03:30:00,
2013-04-21 22:40:00,39.0,36.3,30.14,WNW,292,4.0,6.0,90,0.02,,,-99.99,Weather View 32 v60,2013-04-22 03:40:00,
2013-04-21 22:45:00,40.0,37.3,30.14,NW,315,2.0,7.0,90,0.02,,,-99.99,Weather View 32 v60,2013-04-22 03:45:00,
2013-04-21 22:50:00,40.0,37.3,30.14,WNW,292,3.0,10.0,90,0.02,,,-99.99,Weather View 32 v60,2013-04-22 03:50:00,
2013-04-21 22:56:00,40.0,37.6,30.15,NNW,338,7.0,10.0,91,0.01,,,-99.99,Weather View 32 v60,2013-04-22 03:56:00,
2013-04-21 23:05:00,40.0,37.6,30.15,WNW,292,3.0,11.0,91,0.01,,,-99.99,Weather View 32 v60,2013-04-22 04:05:00,
2013-04-21 23:10:00,40.0,37.6,30.15,NW,315,3.0,11.0,91,0.01,,,-99.99,Weather View 32 v60,2013-04-22 04:10:00,
2013-04-21 23:15:00,39.0,36.6,30.15,NNW,338,3.0,11.0,91,0.02,,,-99.99,Weather View 32 v60,2013-04-22 04:15:00,
2013-04-21 23:20:00,39.0,36.6,30.16,WNW,292,3.0,11.0,91,0.02,,,-99.99,Weather View 32 v60,2013-04-22 04:20:00,
2013-04-21 23:25:00,39.0,36.6,30.16,WNW,292,6.0,11.0,91,0.02,,,-99.99,Weather View 32 v60,2013-04-22 04:25:00,
2013-04-21 23:35:00,39.0,36.6,30.16,NW,315,3.0,11.0,91,0.02,,,-99.99,Weather View 32 v60,2013-04-22 04:35:00,
2013-04-21 23:40:00,39.0,36.6,30.16,NW,315,6.0,11.0,91,0.01,,,-99.99,Weather View 32 v60,2013-04-22 04:40:00,
2013-04-21 23:45:00,38.0,35.6,30.16,NW,315,3.0,11.0,91,0.01,,,-99.99,Weather View 32 v60,2013-04-22 04:45:00,
2013-04-21 23:50:00,38.0,35.6,30.16,NW,315,3.0,11.0,91,0.01,,,-99.99,Weather View 32 v60,2013-04-22 04:50:00,
2013-04-21 23:55:00,38.0,35.6,30.16,NNW,338,2.0,11.0,91,0.01,,,-99.99,Weather View 32 v60,2013-04-22 04:55:00,
2013-04-21 23:56:00,38.0,35.6,30.16,NNW,338,2.0,11.0,91,0.01,,,-99.99,Weather View 32 v60,2013-04-22 04:56:00,